FW2897 Weather Reports


Display with metric or nautical units.
time (UTC)temp
F
wind
direction
speed
MPH
gust
MPH
rain 1hr
in
rain 24hr
in
rain mn
in
humidity
%
barometer
mb
20260901004545 75 82 0.0 0.0 0.00 1.21 0.60 84 1019.1
20260901004039 76 82 0.0 0.0 0.00 1.21 0.60 83 1019.0
20260901003513 76 82 0.0 1.0 0.00 1.21 0.60 82 1018.9
20260901002948 75 82 0.0 1.0 0.00 1.21 0.60 82 1019.0
20260901002421 76 82 0.0 0.0 0.00 1.21 0.60 83 1018.9
20260901001916 76 82 0.0 0.0 0.00 1.21 0.60 82 1018.8
20260901001637 76 82 0.0 0.0 0.00 1.21 0.60 81 1018.9
20260901000846 76 82 0.0 0.0 0.00 1.21 0.60 80 1018.7
20260901000332 76 82 0.0 0.0 0.00 1.21 0.60 79 1018.7
20260901000044 76 82 0.0 0.0 0.00 1.21 0.60 80 1018.7
20260831235248 76 82 0.0 1.0 0.00 1.21 0.60 80 1018.8
20260831234746 76 82 0.0 1.0 0.00 1.21 0.60 79 1018.9
20260831234241 76 79 0.0 0.0 0.00 1.21 0.60 79 1018.9
20260831233737 77 79 0.0 0.0 0.00 1.21 0.60 78 1018.9
20260831233232 77 79 0.0 0.0 0.00 1.21 0.60 78 1019.0
20260831232729 77 79 0.0 0.0 0.00 1.21 0.60 78 1018.9
20260831232202 77 78 0.0 0.0 0.00 1.21 0.60 77 1018.9
20260831231700 78 79 0.0 1.0 0.00 1.21 0.60 76 1018.9
20260831231136 78 78 0.0 1.0 0.00 1.21 0.60 76 1019.1
20260831230609 78 78 0.0 0.0 0.00 1.21 0.60 75 1019.2
20260831230052 78 79 0.0 1.0 0.00 1.21 0.60 75 1019.2
20260831225538 78 79 0.0 1.0 0.00 1.21 0.60 73 1019.2
20260831225011 78 77 0.0 0.0 0.00 1.21 0.60 75 1019.3
20260831224507 78 77 0.0 2.0 0.00 1.21 0.60 74 1019.2
20260831224003 79 77 0.0 2.0 0.00 1.21 0.60 74 1019.3
20260831223502 79 72 0.0 1.0 0.00 1.21 0.60 74 1019.3
20260831222933 79 72 0.0 0.0 0.00 1.21 0.60 73 1019.3
20260831222432 79 72 0.0 0.0 0.00 1.21 0.60 73 1019.3
20260831221904 79 72 0.0 0.0 0.00 1.21 0.60 75 1019.4
20260831221402 79 72 0.0 1.0 0.00 1.21 0.60 74 1019.4
20260831220836 79 72 0.0 1.0 0.00 1.21 0.60 73 1019.4
20260831220308 79 72 0.0 0.0 0.00 1.21 0.60 74 1019.4
20260831215804 79 72 0.0 0.0 0.00 1.21 0.60 73 1019.5
20260831215240 79 86 0.0 0.0 0.00 1.21 0.60 75 1019.6
20260831214935 79 84 0.0 0.0 0.00 1.21 0.60 74 1019.6
20260831214207 79 84 0.0 2.0 0.00 1.21 0.60 73 1019.7
20260831214135 80 84 0.0 2.0 0.00 1.21 0.60 73 1019.8
20260831213127 80 84 0.0 2.0 0.00 1.21 0.60 71 1019.7
20260831212630 80 83 0.0 2.0 0.00 1.21 0.60 70 1019.8
20260831212102 80 188 0.0 2.0 0.00 1.21 0.60 70 1019.7
20260831211601 81 133 0.0 1.0 0.00 1.21 0.60 70 1019.7
20260831211031 82 28 0.0 1.0 0.00 1.21 0.60 68 1019.7
20260831210531 82 328 0.0 1.0 0.00 1.21 0.60 70 1019.7
20260831210009 82 270 0.0 2.0 0.00 1.21 0.60 70 1019.8
20260831205434 82 267 0.0 2.0 0.00 1.21 0.60 69 1019.8
20260831204908 81 27 0.0 2.0 0.00 1.21 0.60 69 1019.9
20260831204404 81 1 0.0 2.0 0.00 1.21 0.60 69 1020.0
20260831203902 81 274 0.0 2.0 0.00 1.21 0.60 71 1020.0
20260831203333 81 273 0.0 3.0 0.00 1.21 0.60 70 1019.8
20260831202834 81 254 1.0 3.0 0.00 1.21 0.60 68 1019.9
20260831202309 80 111 1.0 3.0 0.00 1.21 0.60 69 1020.0
20260831201738 81 75 1.0 3.0 0.00 1.21 0.60 69 1020.0
20260831201236 81 320 1.0 2.0 0.01 1.21 0.60 72 1020.0
20260831200708 80 96 0.0 2.0 0.01 1.21 0.60 71 1020.0
20260831200650 80 98 0.0 3.0 0.01 1.21 0.60 73 1020.2
20260831195637 79 110 0.0 3.0 0.01 1.21 0.60 72 1020.2
20260831195136 79 213 0.0 1.0 0.01 1.21 0.60 73 1020.3
20260831194607 78 217 0.0 2.0 0.01 1.21 0.60 74 1020.4
20260831194111 78 155 0.0 1.0 0.01 1.21 0.60 76 1020.4
20260831193558 77 196 0.0 1.0 0.01 1.21 0.60 77 1020.4
20260831193544 77 335 0.0 1.0 0.01 1.21 0.60 78 1020.5
20260831192536 77 333 0.0 1.0 0.01 1.21 0.60 80 1020.7
20260831192021 77 291 0.0 2.0 0.01 1.21 0.60 79 1020.7
20260831191519 78 293 0.0 2.0 0.01 1.21 0.60 75 1020.3
20260831191019 79 131 0.0 2.0 0.00 1.20 0.59 74 1020.2
20260831190501 80 359 0.0 0.0 0.00 1.20 0.59 74 1020.6
20260831190226 80 359 0.0 0.0 0.00 1.20 0.59 73 1020.8
20260831185438 80 359 0.0 1.0 0.00 1.20 0.59 72 1020.9
20260831185139 81 284 0.0 1.0 0.00 1.20 0.59 72 1021.0
20260831184405 81 62 0.0 3.0 0.00 1.20 0.59 71 1020.9
20260831183845 81 88 1.0 3.0 0.00 1.20 0.59 70 1020.8
20260831183316 81 108 1.0 2.0 0.00 1.20 0.59 69 1020.8
20260831182815 81 30 1.0 2.0 0.00 1.20 0.59 70 1020.8
20260831182315 81 350 0.0 2.0 0.00 1.20 0.59 72 1020.8
20260831182257 80 249 0.0 2.0 0.00 1.20 0.59 70 1020.9
20260831181301 80 222 0.0 2.0 0.00 1.20 0.59 70 1020.8
20260831180743 79 120 0.0 1.0 0.00 1.20 0.59 71 1020.8
20260831180513 79 129 0.0 1.0 0.00 1.20 0.59 73 1020.9
20260831175745 79 125 0.0 2.0 0.00 1.20 0.59 71 1021.0
20260831175224 78 119 0.0 2.0 0.00 1.20 0.59 72 1020.9
20260831174920 78 109 0.0 2.0 0.00 1.20 0.59 71 1021.0
20260831174358 78 92 0.0 2.0 0.00 1.20 0.59 72 1021.0
20260831173612 78 237 0.0 1.0 0.00 1.20 0.59 75 1021.1
20260831173110 78 238 0.0 1.0 0.00 1.20 0.59 75 1021.0
20260831172610 78 236 0.0 2.0 0.00 1.20 0.59 71 1021.0
20260831172328 78 228 0.0 2.0 0.00 1.20 0.59 72 1021.0
20260831171548 79 189 0.0 2.0 0.00 1.20 0.59 72 1021.0
20260831171021 78 115 1.0 3.0 0.00 1.20 0.59 72 1021.2
20260831170519 78 88 1.0 3.0 0.00 1.20 0.59 72 1021.2
20260831170018 78 74 1.0 3.0 0.00 1.20 0.59 73 1021.1
20260831165452 77 84 1.0 3.0 0.00 1.20 0.59 75 1021.1
20260831164951 77 91 1.0 3.0 0.00 1.20 0.59 76 1021.0
20260831164423 77 102 1.0 3.0 0.00 1.20 0.59 76 1021.1
20260831163921 77 85 1.0 3.0 0.00 1.20 0.59 75 1021.1
20260831163416 77 64 1.0 4.0 0.00 1.20 0.59 76 1021.1
20260831162914 78 94 1.0 4.0 0.00 1.20 0.59 74 1021.1
20260831162412 78 147 1.0 5.0 0.00 1.20 0.59 76 1021.0
20260831161858 77 140 1.0 5.0 0.00 1.20 0.59 76 1021.1
20260831161359 77 52 1.0 5.0 0.00 1.20 0.59 77 1021.2
20260831160901 77 99 2.0 7.0 0.00 1.20 0.59 77 1021.1
20260831160336 77 212 1.0 7.0 0.00 1.20 0.59 78 1021.1
20260831155807 76 203 1.0 5.0 0.00 1.20 0.59 79 1021.0
20260831155306 76 148 1.0 5.0 0.00 1.20 0.59 78 1021.1
20260831154742 76 96 0.0 0.0 0.00 1.20 0.59 79 1021.0
20260831154231 76 151 0.0 0.0 0.00 1.20 0.59 81 1021.0
20260831153731 76 220 0.0 0.0 0.00 1.20 0.59 82 1021.1
20260831153230 75 106 0.0 0.0 0.00 1.20 0.59 82 1021.1
20260831152658 75 113 0.0 0.0 0.00 1.20 0.59 86 1021.1
20260831152131 74 113 0.0 0.0 0.00 1.20 0.59 86 1021.0
20260831151627 74 113 0.0 0.0 0.00 1.20 0.59 88 1021.1
20260831151125 74 113 0.0 0.0 0.00 1.20 0.59 87 1021.0
20260831150556 73 113 0.0 0.0 0.00 1.20 0.59 88 1021.1
20260831150104 74 113 0.0 0.0 0.00 1.20 0.59 89 1021.2
20260831145536 73 113 0.0 0.0 0.00 1.20 0.59 89 1021.4
20260831145000 73 113 0.0 0.0 0.00 1.20 0.59 91 1021.5
20260831144456 73 113 0.0 0.0 0.00 1.20 0.59 91 1021.6
20260831144439 73 113 0.0 0.0 0.00 1.20 0.59 92 1021.5
20260831143449 73 113 0.0 0.0 0.00 1.20 0.59 93 1021.5
20260831142947 73 113 0.0 0.0 0.00 1.20 0.59 93 1021.5
20260831142419 72 120 0.0 0.0 0.00 1.20 0.59 94 1021.3
20260831141917 72 120 0.0 1.0 0.00 1.20 0.59 94 1021.4
20260831141351 72 353 0.0 1.0 0.00 1.20 0.59 94 1021.2
20260831140822 72 353 0.0 1.0 0.00 1.20 0.59 94 1021.4
20260831140319 72 353 0.0 1.0 0.00 1.20 0.59 94 1021.3
20260831135755 71 353 0.0 1.0 0.00 1.20 0.59 94 1021.2
20260831135227 72 353 0.0 0.0 0.00 1.20 0.59 94 1021.3
20260831134725 72 353 0.0 1.0 0.00 1.20 0.59 94 1021.3
20260831134156 71 353 0.0 1.0 0.00 1.20 0.59 94 1021.4
20260831133654 71 330 0.0 1.0 0.00 1.20 0.59 94 1021.3
20260831133127 71 244 0.0 1.0 0.00 1.20 0.59 94 1021.1
20260831132625 71 245 0.0 0.0 0.00 1.20 0.59 94 1021.0
20260831132056 71 244 0.0 0.0 0.00 1.20 0.59 94 1021.2
20260831131554 71 245 0.0 0.0 0.00 1.20 0.59 94 1021.2
20260831131029 71 245 0.0 0.0 0.00 1.20 0.59 94 1021.2
20260831130501 71 245 0.0 0.0 0.00 1.20 0.59 94 1021.2
20260831125956 71 245 0.0 0.0 0.00 1.20 0.59 94 1021.4
20260831125456 71 245 0.0 0.0 0.00 1.20 0.59 94 1021.3
20260831124954 71 245 0.0 0.0 0.00 1.20 0.59 94 1021.4
20260831124425 71 245 0.0 1.0 0.00 1.20 0.59 94 1021.3
20260831123923 71 245 0.0 1.0 0.00 1.20 0.59 94 1021.2
20260831123358 71 241 0.0 1.0 0.00 1.20 0.59 94 1021.2
20260831122831 71 241 0.0 1.0 0.00 1.20 0.59 94 1021.2
20260831122823 71 241 0.0 1.0 0.00 1.20 0.59 94 1021.2
20260831121758 70 340 0.0 0.0 0.00 1.20 0.59 94 1021.2
20260831121526 70 340 0.0 0.0 0.00 1.20 0.59 94 1021.2
20260831120753 70 340 0.0 0.0 0.00 1.20 0.59 94 1021.3
20260831120305 70 340 0.0 0.0 0.00 1.20 0.59 94 1021.2
20260831115726 70 340 0.0 0.0 0.00 1.20 0.59 94 1021.2
20260831115455 70 340 0.0 0.0 0.00 1.20 0.59 94 1021.0
20260831114921 70 340 0.0 0.0 0.00 1.20 0.59 94 1021.0
20260831114131 70 340 0.0 0.0 0.00 1.20 0.59 94 1021.0
20260831113626 70 340 0.0 0.0 0.00 1.20 0.59 94 1020.8
20260831113400 70 340 0.0 0.0 0.00 1.20 0.59 94 1020.9
20260831112600 70 340 0.0 0.0 0.00 1.20 0.59 94 1020.8
20260831112104 70 340 0.0 0.0 0.00 1.20 0.59 94 1020.6
20260831111544 70 340 0.0 0.0 0.00 1.20 0.59 94 1020.5
20260831111044 70 340 0.0 0.0 0.00 1.20 0.59 94 1020.6
20260831110540 70 340 0.0 0.0 0.00 1.20 0.59 94 1020.7
20260831110029 70 340 0.0 0.0 0.00 1.20 0.59 94 1020.6
20260831105732 70 340 0.0 0.0 0.00 1.20 0.59 94 1020.6
20260831104956 70 340 0.0 0.0 0.00 1.20 0.59 94 1020.6
20260831104457 70 340 0.0 0.0 0.00 1.20 0.59 94 1020.6
20260831104139 70 340 0.0 0.0 0.00 1.20 0.59 94 1020.5
20260831104126 70 340 0.0 0.0 0.00 1.20 0.59 94 1020.5
20260831102843 70 340 0.0 0.0 0.00 1.20 0.59 94 1020.5
20260831102325 70 340 0.0 0.0 0.00 1.20 0.59 94 1020.6
20260831101826 70 340 0.0 0.0 0.00 1.20 0.59 94 1020.4
20260831101307 70 340 0.0 0.0 0.00 1.20 0.59 94 1020.4
20260831100808 70 340 0.0 0.0 0.00 1.20 0.59 94 1020.3
20260831100304 70 340 0.0 0.0 0.00 1.20 0.59 94 1020.1
20260831095805 70 340 0.0 0.0 0.00 1.20 0.59 94 1019.9
20260831095246 70 340 0.0 0.0 0.00 1.20 0.59 94 1020.0
20260831094747 70 340 0.0 0.0 0.00 1.20 0.59 94 1020.0
20260831094225 70 340 0.0 0.0 0.00 1.20 0.59 94 1020.0
20260831093659 70 340 0.0 0.0 0.00 1.20 0.59 94 1019.9
20260831093136 71 340 0.0 0.0 0.00 1.20 0.59 94 1019.8
20260831092633 71 340 0.0 0.0 0.00 1.20 0.59 94 1019.9
20260831092134 70 340 0.0 1.0 0.00 1.20 0.59 94 1019.9
20260831091600 70 340 0.0 1.0 0.00 1.20 0.59 94 1019.8
20260831091057 70 340 0.0 1.0 0.00 1.20 0.59 94 1019.8
20260831091035 70 340 0.0 1.0 0.00 1.20 0.59 94 1019.7
20260831090023 70 340 0.0 0.0 0.00 1.20 0.59 94 1019.6
20260831085520 70 340 0.0 0.0 0.00 1.20 0.59 94 1019.5
20260831085016 71 340 0.0 0.0 0.00 1.20 0.59 94 1019.4
20260831084741 71 340 0.0 0.0 0.00 1.20 0.59 94 1019.3
20260831083952 71 340 0.0 0.0 0.00 1.20 0.59 94 1019.4
20260831083425 70 340 0.0 0.0 0.00 1.20 0.59 94 1019.4
20260831083145 70 340 0.0 0.0 0.00 1.20 0.59 94 1019.3
20260831082614 70 340 0.0 0.0 0.00 1.20 0.59 94 1019.2
20260831082100 71 340 0.0 0.0 0.00 1.20 0.59 94 1019.3
20260831082046 70 340 0.0 0.0 0.00 1.20 0.59 94 1019.3
20260831081104 71 340 0.0 0.0 0.00 1.20 0.59 94 1019.3
20260831080608 71 340 0.0 0.0 0.00 1.20 0.59 94 1019.3
20260831075813 71 340 0.0 0.0 0.00 1.20 0.59 94 1019.4
20260831075308 71 340 0.0 0.0 0.00 1.20 0.59 94 1019.4
20260831074807 71 340 0.0 0.0 0.00 1.20 0.59 94 1019.5
20260831074526 71 340 0.0 0.0 0.00 1.20 0.59 94 1019.5
20260831073800 71 340 0.0 0.0 0.00 1.20 0.59 94 1019.5
20260831073231 71 340 0.0 0.0 0.00 1.20 0.59 94 1019.5
20260831072952 71 340 0.0 0.0 0.00 1.20 0.59 94 1019.5
20260831072203 71 340 0.0 0.0 0.00 1.20 0.59 94 1019.7
20260831071700 71 340 0.0 0.0 0.00 1.20 0.59 94 1019.7
20260831071354 71 340 0.0 0.0 0.00 1.20 0.59 94 1019.8
20260831070629 71 340 0.0 0.0 0.00 1.20 0.59 94 1019.8
20260831070115 71 340 0.0 0.0 0.01 1.20 0.59 94 1019.8
20260831065535 71 340 0.0 0.0 0.01 1.20 0.59 94 1019.8
20260831065029 71 340 0.0 0.0 0.01 1.20 0.59 94 1019.7
20260831064529 71 340 0.0 0.0 0.01 1.20 0.59 94 1019.7
20260831063959 71 340 0.0 0.0 0.01 1.20 0.59 94 1019.5
20260831063458 71 340 0.0 1.0 0.01 1.20 0.59 94 1019.5
20260831063007 71 340 0.0 1.0 0.01 1.20 0.59 93 1019.8
20260831062452 71 340 0.0 0.0 0.01 1.20 0.59 94 1019.8
20260831061928 71 340 0.0 0.0 0.01 1.20 0.59 94 1019.6
20260831061400 71 340 0.0 1.0 0.01 1.20 0.59 94 1019.7
20260831060833 71 340 0.0 0.0 0.03 1.20 0.59 94 1019.8
20260831060330 71 340 0.0 0.0 0.22 1.20 0.59 94 1019.9
20260831055827 71 340 0.0 0.0 0.52 1.19 0.58 94 1020.0
20260831055326 71 340 0.0 0.0 0.57 1.19 0.58 94 1020.0
20260831055023 71 340 0.0 0.0 0.57 1.19 0.58 93 1020.0
20260831054521 71 340 0.0 0.0 0.57 1.19 0.58 93 1020.0
20260831053743 71 340 0.0 1.0 0.57 1.19 0.58 93 1020.1
20260831053245 71 340 0.0 0.0 0.57 1.19 0.58 93 1020.0
20260831052733 71 340 0.0 1.0 0.57 1.19 0.58 93 1020.1
20260831052235 71 348 0.0 1.0 0.57 1.19 0.58 93 1020.1
20260831051703 71 294 0.0 2.0 0.57 1.19 0.58 94 1020.0
20260831051200 71 293 0.0 2.0 0.57 1.19 0.58 94 1020.0
20260831051153 70 292 0.0 3.0 0.51 1.13 0.53 93 1020.1
20260831050156 70 123 0.0 3.0 0.32 0.93 0.32 93 1020.4
20260831045628 69 39 0.0 1.0 0.02 0.63 0.02 93 1020.1
20260831045123 69 39 0.0 0.0 0.01 0.62 0.01 92 1020.0
20260831044621 69 48 0.0 1.0 0.01 0.62 0.01 92 1019.8
20260831044120 69 47 0.0 1.0 0.01 0.62 0.01 92 1019.9
20260831043551 69 311 0.0 0.0 0.01 0.62 0.01 92 1020.0
20260831043048 69 311 0.0 0.0 0.01 0.62 0.01 92 1020.1
20260831042524 69 311 0.0 0.0 0.02 0.62 0.01 92 1020.0
20260831042217 69 311 0.0 0.0 0.07 0.62 0.01 92 1020.0
20260831041454 69 311 0.0 0.0 0.18 0.62 0.01 92 1020.0
20260831040950 69 311 0.0 0.0 0.39 0.62 0.01 92 1020.0
20260831040449 69 311 0.0 0.0 0.54 0.62 0.01 91 1020.0
20260831035923 69 311 0.0 0.0 0.56 0.61 0.61 91 1020.0
20260831035420 69 311 0.0 0.0 0.60 0.61 0.61 91 1020.0
20260831035146 69 311 0.0 0.0 0.60 0.61 0.61 91 1020.1
20260831034400 69 311 0.0 0.0 0.61 0.61 0.61 90 1020.1
20260831033901 69 311 0.0 1.0 0.61 0.61 0.61 90 1020.0
20260831033344 69 311 0.0 1.0 0.61 0.61 0.61 90 1020.2
20260831032841 69 214 0.0 2.0 0.61 0.61 0.61 89 1020.2
20260831032339 70 90 1.0 8.0 0.59 0.59 0.60 88 1020.5
20260831031844 71 290 2.0 8.0 0.53 0.53 0.53 87 1020.9
20260831031537 72 60 3.0 15.0 0.33 0.33 0.38 85 1020.9
20260831030812 74 280 2.0 15.0 0.16 0.16 0.17 83 1020.9
20260831030257 76 271 1.0 9.0 0.07 0.07 0.07 88 1020.6
20260831025753 76 261 0.0 9.0 0.03 0.03 0.04 87 1020.5
20260831025253 76 327 0.0 1.0 0.01 0.01 0.01 86 1020.1
20260831024731 77 327 0.0 1.0 0.00 0.00 0.01 85 1020.1
20260831024158 77 327 0.0 1.0 0.00 0.00 0.00 85 1020.1
20260831023859 77 314 0.0 0.0 0.00 0.00 0.00 85 1020.2
20260831023119 77 314 0.0 0.0 0.00 0.00 0.00 86 1020.1
20260831022559 77 314 0.0 0.0 0.00 0.00 0.00 85 1020.1
20260831022306 77 314 0.0 0.0 0.00 0.00 0.00 85 1020.2
20260831021540 78 314 0.0 0.0 0.00 0.00 0.00 84 1020.1
20260831021043 78 314 0.0 0.0 0.00 0.00 0.00 83 1020.0
20260831020528 78 314 0.0 0.0 0.00 0.00 0.00 82 1020.0
20260831020029 78 316 0.0 0.0 0.00 0.00 0.00 82 1019.9
20260831015505 78 316 0.0 0.0 0.00 0.00 0.00 82 1020.0
20260831014942 78 315 0.0 1.0 0.00 0.00 0.00 81 1020.0
20260831014701 78 241 0.0 1.0 0.00 0.00 0.00 81 1020.0
20260831013939 78 230 0.0 0.0 0.00 0.00 0.00 81 1019.8
20260831013703 79 230 0.0 0.0 0.00 0.00 0.00 80 1020.0
20260831012918 79 230 0.0 0.0 0.00 0.00 0.00 79 1020.0
20260831012352 79 230 0.0 0.0 0.00 0.00 0.00 78 1020.0
20260831011826 79 230 0.0 0.0 0.00 0.00 0.00 78 1020.1
20260831011304 79 230 0.0 0.0 0.00 0.00 0.00 79 1020.2
20260831010802 79 230 0.0 1.0 0.00 0.00 0.00 79 1020.2
20260831010303 79 230 0.0 1.0 0.00 0.00 0.00 80 1020.2
20260831005725 79 229 0.0 0.0 0.00 0.00 0.00 81 1020.0
20260831005158 80 229 0.0 0.0 0.00 0.00 0.00 81 1020.1
20260831004653 80 229 0.0 2.0 0.00 0.00 0.00 80 1020.0